Meteo Giornale » Osservazioni meteo Italia » Cagliari-Elmas

ore: 07:50 - Osservazioni Meteo Cagliari-Elmas
Lat. 39° 15' N Lon. 9° 4' E Alt. 4 metri s.l.m.

poco_nuvoloso Europe/Rome

22 °C

Poco Nuvoloso

Temp. 24 Ore

20 °C

30 °C

Nord/NOvest

9.3 Km/h

Dew point 20 °C

Umidità 88 %

Visibilità  10 Km

Il sole sorge alle ore 07:12

Il sole tramonta alle ore 19:18

Data e Ora Cielo e Fenomeni T °C DP °C Um. % Pres. hPa Vis. km Vento km/h
Oggi h: 07:50 poco_nuvoloso Poco Nuvoloso 22 20 88 1016 10 N/NO 9.3
Oggi h: 07:20 poco_nuvoloso Poco Nuvoloso 22 20 88 1016 10 N/NO 13
Oggi h: 06:50 sereno Sereno 21 20 94 1016 10 N/NO 14.8
Oggi h: 06:20 sereno Sereno 22 20 88 1016 10 N 18.5
Oggi h: 05:20 sereno Sereno 21 20 94 1017 10 NO 13
Oggi h: 04:50 sereno Sereno 21 20 94 1017 10 NO 14.8
Oggi h: 04:20 sereno Sereno 21 20 94 1017 10 NO 13
Oggi h: 03:50 sereno Sereno 21 20 94 1017 10 N/NO 14.8
Oggi h: 03:20 sereno Sereno 22 20 88 1017 10 N/NO 14.8
Oggi h: 02:50 sereno Sereno 22 20 88 1018 10 N/NO 20.3
Oggi h: 02:20 sereno Sereno 22 20 88 1018 10 N/NO 18.5
Oggi h: 01:50 sereno Sereno 22 20 88 1018 10 N/NO 16.7
Oggi h: 01:20 sereno Sereno 22 19 83 1018 10 N/NO 16.7
Oggi h: 00:50 sereno Sereno 22 19 83 1018 10 NO 13
Oggi h: 00:20 sereno Sereno 22 19 83 1019 10 N/NO 14.8
Ieri h: 23:50 sereno Sereno 22 19 83 1019 10 NO 16.7
Ieri h: 23:20 sereno Sereno 22 19 83 1019 10 NO 13
Ieri h: 22:50 sereno Sereno 22 19 83 1019 10 N/NO 13
Ieri h: 22:20 sereno Sereno 23 19 78 1019 10 N 14.8
Ieri h: 21:50 sereno Sereno 23 18 73 1019 10 N/NO 11.1
Ieri h: 21:20 sereno Sereno 24 18 69 1019 10 NO 14.8
Ieri h: 20:50 sereno Sereno 24 18 69 1018 10 NO 13
Ieri h: 20:20 sereno Sereno 25 18 65 1018 10 N/NO 16.7
Ieri h: 19:50 sereno Sereno 25 18 65 1018 10 N/NO 16.7
Ieri h: 19:20 sereno Sereno 26 18 61 1018 10 N/NO 14.8
Ieri h: 18:50 sereno Sereno 28 16 48 1018 10 NO 13
Ieri h: 18:20 sereno Sereno 29 14 39 1018 10 NO 14.8
Ieri h: 17:50 sereno Sereno 29 15 42 1018 10 O/NO 18.5
Ieri h: 17:20 sereno Sereno 30 16 42 1018 10 O/NO 16.7
Ieri h: 16:50 sereno Sereno 30 15 40 1018 10 O/NO 16.7
Ieri h: 16:20 sereno Sereno 30 15 40 1018 10 O/NO 16.7
Ieri h: 15:50 poco_nuvoloso Poco Nuvoloso 30 17 45 1018 10 N 9.3
Ieri h: 15:20 poco_nuvoloso Poco Nuvoloso 29 19 54 1018 10 S/SE 9.3
Ieri h: 14:50 poco_nuvoloso Poco Nuvoloso 29 19 54 1019 10 S 9.3
Ieri h: 14:20 poco_nuvoloso Poco Nuvoloso 29 19 54 1019 10 S 11.1
Ieri h: 13:50 sereno Sereno 28 19 58 1019 10 S 14.8
Ieri h: 13:20 sereno Sereno 29 19 54 1020 10 S/SO 7.4
Ieri h: 12:50 sereno Sereno 29 19 54 1020 10 N 3.7
Ieri h: 12:20 sereno Sereno 27 18 57 1020 10 N 5.5
Ieri h: 11:50 sereno Sereno 27 19 61 1020 10 N 5.5
Ieri h: 11:20 sereno Sereno 26 18 61 1020 10 O/NO 7.4
Ieri h: 10:50 sereno Sereno 25 17 61 1020 10 O 7.4
Ieri h: 10:20 sereno Sereno 25 16 57 1020 10 N 5.5
Ieri h: 09:50 sereno Sereno 23 15 60 1020 10 NO 7.4
Ieri h: 09:20 sereno Sereno 22 14 60 1020 10 NO 9.3
Ieri h: 08:50 sereno Sereno 20 14 68 1020 10 NO 9.3